Location: Washington
(38.8950°N, 77.0370°W)
Time: 08:48:43
(UTC-05:00)

ISS - All Passes

Search period start: 11 December 2016 00:00
Search period end: 21 December 2016 00:00
Orbit: 401 x 409 km, 51.6° (Epoch: 11 December)

Date Brightness Start Highest point End Pass type
(mag) Time Alt. Az. Time Alt. Az. Time Alt. Az.
11 Dec - 14:00:49 10° SW 14:04:04 75° SE 14:07:22 10° NE daylight
11 Dec - 15:38:33 10° WNW 15:40:54 18° NNW 15:43:15 10° NNE daylight
11 Dec - 18:54:19 10° NNW 18:56:10 14° NNE 18:58:00 10° NE visible
11 Dec - 20:29:56 10° NW 20:33:13 61° NE 20:36:29 10° ESE night (unlit)
11 Dec - 22:07:45 10° W 22:09:20 13° SW 22:10:55 10° SSW night (unlit)
12 Dec - 13:09:10 10° SSW 13:12:11 35° SE 13:15:14 10° ENE daylight
12 Dec - 14:45:55 10° W 14:48:44 26° NNW 14:51:35 10° NNE daylight
12 Dec - 16:25:49 10° NNW 16:26:08 10° N 16:26:27 10° N daylight
12 Dec - 18:02:50 10° N 18:03:52 11° NNE 18:04:55 10° NNE visible
12 Dec - 19:38:06 10° NW 19:41:10 34° NNE 19:44:12 10° E visible
12 Dec - 21:14:47 10° WNW 21:17:34 25° SW 21:20:19 10° S night (unlit)
13 Dec - 12:18:02 10° S 12:20:22 18° SE 12:22:42 10° E daylight
13 Dec - 13:53:29 10° WSW 13:56:38 43° NW 13:59:48 10° NE daylight
13 Dec - 15:32:24 10° NW 15:33:49 12° NNW 15:35:14 10° N daylight
13 Dec - 18:46:23 10° NNW 18:49:01 22° NNE 18:51:40 10° E visible
13 Dec - 20:22:29 10° WNW 20:25:42 50° SW 20:28:54 10° SSE night (unlit)
14 Dec - 13:01:20 10° SW 13:04:36 83° NW 13:07:54 10° NE daylight
14 Dec - 14:39:25 10° WNW 14:41:32 16° NNW 14:43:39 10° NNE daylight
14 Dec - 17:54:42 10° NNW 17:56:48 16° NNE 17:58:53 10° ENE visible
14 Dec - 19:30:25 10° NW 19:33:44 79° NE 19:37:02 10° SE visible
15 Dec - 12:09:30 10° SSW 12:12:38 47° SE 12:15:49 10° ENE daylight
15 Dec - 13:46:39 10° W 13:49:18 22° NNW 13:51:58 10° NNE daylight
15 Dec - 17:03:08 10° N 17:04:29 12° NNE 17:05:52 10° NE daylight
15 Dec - 18:38:31 10° NW 18:41:41 41° NNE 18:44:50 10° ESE visible
15 Dec - 20:15:32 10° W 20:17:59 19° SW 20:20:25 10° S night (unlit)
16 Dec - 11:18:06 10° S 11:20:45 23° SE 11:23:26 10° ENE daylight
16 Dec - 12:54:05 10° W 12:57:07 35° NNW 13:00:11 10° NE daylight
16 Dec - 14:33:19 10° NNW 14:34:24 11° NNW 14:35:28 10° N daylight
16 Dec - 17:46:43 10° NNW 17:49:32 25° NNE 17:52:21 10° E visible
16 Dec - 19:23:00 10° WNW 19:26:06 38° SW 19:29:11 10° SSE visible
17 Dec - 10:27:37 10° SSE 10:28:56 12° SE 10:30:15 10° ESE daylight
17 Dec - 12:01:48 10° WSW 12:05:02 64° NW 12:08:18 10° NE daylight
17 Dec - 13:40:11 10° NW 13:42:03 14° NNW 13:43:55 10° NNE daylight
17 Dec - 16:55:00 10° NNW 16:57:18 17° NNE 16:59:37 10° ENE daylight
17 Dec - 18:30:50 10° NW 18:34:08 80° SW 18:37:26 10° SE visible
18 Dec - 11:09:47 10° SW 11:13:00 63° SE 11:16:15 10° ENE daylight
18 Dec - 12:47:18 10° WNW 12:49:45 19° NNW 12:52:14 10° NNE daylight
18 Dec - 16:03:20 10° NNW 16:04:59 13° NNE 16:06:38 10° NE daylight
18 Dec - 17:38:51 10° NW 17:42:05 52° NE 17:45:18 10° ESE visible
18 Dec - 19:16:17 10° W 19:18:16 15° SW 19:20:15 10° SSW visible
19 Dec - 10:18:09 10° SSW 10:21:03 30° SE 10:23:58 10° ENE daylight
19 Dec - 11:54:37 10° W 11:57:31 29° NNW 12:00:27 10° NNE daylight
19 Dec - 13:34:14 10° NNW 13:34:52 10° N 13:35:30 10° N daylight
19 Dec - 15:11:51 10° N 15:12:36 11° N 15:13:21 10° NNE daylight
19 Dec - 16:46:58 10° NW 16:49:55 30° NNE 16:52:53 10° E daylight
19 Dec - 18:23:28 10° WNW 18:26:23 29° SW 18:29:17 10° SSE visible
20 Dec - 09:27:09 10° SSE 09:29:10 15° SE 09:31:11 10° E daylight
20 Dec - 11:02:10 10° WSW 11:05:21 50° NW 11:08:33 10° NE daylight
20 Dec - 12:40:54 10° NW 12:42:28 13° NNW 12:44:03 10° NNE daylight
20 Dec - 15:55:10 10° NNW 15:57:41 20° NNE 16:00:12 10° ENE daylight
20 Dec - 17:31:09 10° WNW 17:34:25 60° SW 17:37:40 10° SE visible
